FW2439 Weather Reports


time (UTC)temp
C
wind
direction
speed
KPH
gust
KPH
rain 1hr
cm
rain 24hr
cm
rain mn
cm
humidity
%
barometer
mb
20260506204601 11 242 0.0 3.2 0.00 0.00 0.00 99 1014.7
20260506203100 11 311 0.0 4.8 0.00 0.00 0.00 99 1015.3
20260506201600 11 285 0.0 3.2 0.00 0.00 0.00 99 1014.9
20260506200104 11 309 0.0 4.8 0.00 0.00 0.00 99 1014.7
20260506194559 11 339 1.6 6.4 0.00 0.00 0.00 99 1015.2
20260506193059 11 295 0.0 3.2 0.00 0.00 0.00 99 1015.5
20260506191558 11 304 0.0 8.0 0.00 0.00 0.00 99 1015.1
20260506184556 11 305 1.6 4.8 0.00 0.00 0.00 99 1014.6
20260506183056 11 116 0.0 6.4 0.00 0.00 0.00 99 1015.0
20260506181558 11 218 0.0 4.8 0.00 0.00 0.00 99 1014.9
20260506180055 11 246 0.0 1.6 0.00 0.00 0.00 99 1014.7
20260506174556 11 259 0.0 1.6 0.00 0.00 0.00 99 1015.2
20260506173124 10 242 0.0 3.2 0.00 0.00 0.00 99 1015.4
20260506171559 11 319 0.0 4.8 0.00 0.00 0.00 99 1014.9
20260506170050 11 315 1.6 4.8 0.00 0.00 0.00 99 1014.7
20260506164556 11 62 0.0 8.0 0.00 0.00 0.00 99 1014.7
20260506163058 11 1 0.0 6.4 0.00 0.00 0.00 99 1014.3
20260506161603 11 329 0.0 6.4 0.00 0.00 0.00 99 1014.5
20260506160047 11 234 0.0 3.2 0.00 0.00 0.00 99 1013.7
20260506154551 11 107 0.0 4.8 0.00 0.00 0.00 99 1014.4
20260506153048 11 326 0.0 4.8 0.00 0.00 0.00 99 1014.4
20260506151548 11 229 0.0 3.2 0.00 0.00 0.00 99 1013.8
20260506150045 11 273 1.6 4.8 0.00 0.00 0.00 99 1014.9
20260506144544 11 181 0.0 3.2 0.00 0.00 0.00 99 1014.4
20260506143045 11 266 0.0 3.2 0.00 0.00 0.00 99 1014.2
20260506141540 11 248 0.0 6.4 0.00 0.00 0.00 99 1014.1
20260506140041 11 309 0.0 6.4 0.00 0.00 0.00 99 1013.9
20260506134538 11 303 0.0 4.8 0.00 0.00 0.00 99 1013.6
20260506133038 11 252 0.0 3.2 0.00 0.00 0.00 99 1013.4
20260506131545 11 267 0.0 4.8 0.00 0.00 0.00 99 1013.0
20260506130044 11 69 0.0 1.6 0.00 0.00 0.00 99 1012.6
20260506124531 11 69 0.0 3.2 0.00 0.00 0.00 99 1012.2
20260506123030 11 72 0.0 1.6 0.00 0.00 0.00 99 1011.8
20260506121529 11 62 0.0 8.0 0.00 0.00 0.00 99 1011.8
20260506120032 11 288 0.0 4.8 0.00 0.00 0.00 99 1011.0
20260506114534 11 334 1.6 4.8 0.00 0.00 0.00 99 1010.4
20260506113028 11 293 0.0 3.2 0.00 0.00 0.00 99 1010.7
20260506111526 11 311 0.0 1.6 0.00 0.00 0.00 99 1011.5
20260506110027 11 231 0.0 1.6 0.00 0.00 0.00 98 1011.8
20260506104527 11 136 0.0 4.8 0.00 0.00 0.00 98 1011.9
20260506103022 11 311 0.0 3.2 0.00 0.00 0.00 98 1010.4
20260506101533 11 256 0.0 3.2 0.00 0.00 0.00 98 1010.5
20260506100018 11 320 0.0 4.8 0.00 0.00 0.00 98 1009.7
20260506094523 11 293 0.0 1.6 0.00 0.00 0.00 98 1010.6
20260506093018 11 328 0.0 3.2 0.00 0.00 0.00 98 1009.7
20260506091515 11 255 0.0 6.4 0.00 0.00 0.00 98 1008.9
20260506090012 11 139 3.2 6.4 0.00 0.00 0.00 98 1009.2
20260506084511 12 300 1.6 4.8 0.00 0.00 0.00 97 1009.4
20260506083009 12 137 0.0 8.0 0.00 0.00 0.00 97 1009.5
20260506081504 12 336 3.2 9.7 0.00 0.00 0.00 96 1009.6
20260506080103 13 7 1.6 8.0 0.00 0.00 0.00 95 1008.8
20260506073052 17 279 3.2 17.7 0.00 0.00 0.00 93 1008.4
20260506071548 19 229 0.0 1.6 0.00 0.00 0.00 94 1008.0
20260506061539 20 210 0.0 19.3 0.00 0.00 0.00 89 1007.0
20260506044604 20 203 1.6 14.5 0.00 0.00 0.00 88 1007.6
20260506043031 20 185 4.8 16.1 0.00 0.00 0.00 88 1007.6
20260506041525 20 196 1.6 12.9 0.00 0.00 0.00 89 1007.9
20260506040028 20 199 1.6 9.7 0.00 0.00 0.00 90 1008.1
20260506034544 20 165 0.0 8.0 0.00 0.00 0.00 90 1007.9
20260506033022 19 156 3.2 14.5 0.00 0.00 0.00 91 1007.9
20260506031521 19 172 3.2 11.3 0.00 0.00 0.00 92 1008.4
20260506030019 19 219 0.0 8.0 0.00 0.00 0.00 92 1008.3
20260506024519 19 205 0.0 8.0 0.00 0.00 0.00 93 1008.3
20260506023018 19 216 1.6 9.7 0.00 0.00 0.00 93 1008.2
20260506021516 18 206 1.6 6.4 0.00 0.00 0.00 94 1008.2
20260506020014 18 244 0.0 6.4 0.00 0.00 0.00 96 1008.1
20260506014517 18 229 0.0 4.8 0.00 0.00 0.00 96 1007.9
20260506013013 18 203 0.0 6.4 0.00 0.00 0.00 97 1007.9
20260506011515 18 232 1.6 8.0 0.00 0.00 0.00 97 1007.9
20260506010010 18 229 0.0 3.2 0.00 0.00 0.00 97 1007.6
20260506004520 18 229 0.0 3.2 0.00 0.00 0.00 97 1007.9
20260506003010 17 226 0.0 4.8 0.00 0.00 0.00 97 1007.7
20260506001507 17 188 0.0 4.8 0.00 0.00 0.00 98 1007.8
20260506000006 17 229 0.0 4.8 0.00 0.00 0.00 98 1007.7
20260505234509 17 206 0.0 6.4 0.00 0.00 0.00 98 1007.9
20260505233008 17 226 0.0 3.2 0.00 0.00 0.00 98 1008.0
20260505231509 17 215 0.0 6.4 0.00 0.00 0.00 98 1007.9
20260505230006 17 231 0.0 1.6 0.00 0.00 0.00 98 1007.8
20260505224502 17 142 0.0 4.8 0.00 0.00 0.00 98 1007.8
20260505223001 17 230 1.6 4.8 0.00 0.00 0.00 98 1008.0
20260505221604 17 207 0.0 11.3 0.00 0.00 0.00 98 1008.2
20260505220106 17 226 1.6 8.0 0.00 0.00 0.00 98 1008.4
20260505214605 17 255 0.0 6.4 0.00 0.00 0.00 98 1008.5
20260505213103 17 151 0.0 6.4 0.00 0.00 0.00 98 1008.6
20260505211602 17 186 1.6 9.7 0.00 0.00 0.00 98 1008.6
20260505210056 17 235 1.6 8.0 0.00 0.00 0.00 98 1008.6